Change the Weather History Date:

Saturday, October 27, 2012

  Actual Average Record
Temperature  
Mean Temperature 36 °F -  
Max Temperature 44 °F 58 °F 140 °F (1998)
Min Temperature 28 °F 36 °F 15 °F (1976)
Degree Days  
Heating Degree Days 29    
Moisture  
Dew Point 20 °F    
Average Humidity 55    
Maximum Humidity 80    
Minimum Humidity 25    
Precipitation  
Precipitation 0.00 in - - ()
Sea Level Pressure  
Sea Level Pressure 30.32 in    
Wind  
Wind Speed 3 mph (SW)    
Max Wind Speed 8 mph    
Max Gust Speed -    
Visibility 10 miles    
Events      
Averages and records for this station are not official NWS values.
T = Trace of Precipitation, MM = Missing Value Source: NWS Daily Summary

Daily Weather History Graph

Daily Weather History Graph

Search for Another Location

Airport or City:

Trip Planner

Search our weather history database for the weather conditions in past years. The results will help you decide how hot, cold, wet, or windy it might be!

Date:

Astronomy

Oct. 27, 2012 Rise Set
Actual Time 7:43 AM CDT 6:09 PM CDT
Civil Twilight 7:13 AM CDT 6:39 PM CDT
Nautical Twilight 6:40 AM CDT 7:12 PM CDT
Astronomical Twilight 6:06 AM CDT 7:46 PM CDT
Moon 4:57 PM CDT (10/27) 5:36 AM CDT (10/27)
Length of Visible Light 11h 25m
Length of Day
10h 25m
Waxing Gibbous, 96% of the Moon is Illuminated
Oct 27
Waxing Gibbous
Oct 29
Full
Nov 6
Last Quarter
Nov 13
New
Nov 20
First Quarter

Hourly Weather History & Observations

Time (CDT) Temp. Windchill Dew Point Humidity Pressure Visibility Wind Dir Wind Speed Gust Speed Precip Events Conditions
12:13 AM 35.6 °F 32.8 °F 26.6 °F 70% 30.34 in 10.0 mi West 3.5 mph - N/A   Overcast
12:34 AM 35.6 °F 32.8 °F 26.6 °F 70% 30.34 in 10.0 mi WSW 3.5 mph - N/A   Unknown
12:53 AM 35.6 °F 31.7 °F 26.6 °F 70% 30.34 in 10.0 mi WSW 4.6 mph - N/A   Unknown
1:13 AM 33.8 °F - 24.8 °F 70% 30.34 in 10.0 mi Calm Calm - N/A   Mostly Cloudy
1:33 AM 33.8 °F - 26.6 °F 75% 30.33 in 10.0 mi Calm Calm - N/A   Overcast
1:53 AM 33.8 °F - 26.6 °F 75% 30.33 in 10.0 mi Calm Calm - N/A   Overcast
2:13 AM 35.6 °F 32.8 °F 26.6 °F 70% 30.33 in 10.0 mi SW 3.5 mph - N/A   Overcast
2:54 AM 35.6 °F - 26.6 °F 70% 30.33 in 10.0 mi Calm Calm - N/A   Unknown
3:13 AM 35.6 °F - 26.6 °F 70% 30.32 in 10.0 mi Calm Calm - N/A   Unknown
3:34 AM 35.6 °F - 26.6 °F 70% 30.32 in 10.0 mi Calm Calm - N/A   Unknown
3:54 AM 35.6 °F - 26.6 °F 70% 30.32 in 10.0 mi Calm Calm - N/A   Unknown
4:13 AM 35.6 °F 32.8 °F 26.6 °F 70% 30.32 in 10.0 mi SW 3.5 mph - N/A   Unknown
4:33 AM 35.6 °F 32.8 °F 26.6 °F 70% 30.33 in 10.0 mi SW 3.5 mph - N/A   Unknown
4:53 AM 33.8 °F 30.8 °F 24.8 °F 70% 30.33 in 10.0 mi SW 3.5 mph - N/A   Unknown
5:14 AM 32.0 °F - 24.8 °F 75% 30.33 in 10.0 mi Calm Calm - N/A   Mostly Cloudy
5:33 AM 30.2 °F - 24.8 °F 80% 30.33 in 10.0 mi Calm Calm - N/A   Unknown
5:53 AM 32.0 °F 28.7 °F 24.8 °F 75% 30.33 in 10.0 mi South 3.5 mph - N/A   Unknown
6:13 AM 30.2 °F - 23.0 °F 75% 30.34 in 10.0 mi Calm Calm - N/A   Unknown
6:33 AM 28.4 °F 23.3 °F 21.2 °F 74% 30.34 in 10.0 mi SSW 4.6 mph - N/A   Unknown
6:53 AM 28.4 °F 23.3 °F 21.2 °F 74% 30.34 in 10.0 mi SSW 4.6 mph - N/A   Unknown
7:13 AM 30.2 °F 26.7 °F 21.2 °F 69% 30.34 in 10.0 mi South 3.5 mph - N/A   Unknown
7:33 AM 28.4 °F 24.6 °F 21.2 °F 74% 30.35 in 10.0 mi SSW 3.5 mph - N/A   Clear
7:53 AM 28.4 °F 24.6 °F 21.2 °F 74% 30.35 in 10.0 mi South 3.5 mph - N/A   Clear
8:13 AM 28.4 °F 22.2 °F 21.2 °F 74% 30.35 in 10.0 mi South 5.8 mph - N/A   Clear
8:33 AM 30.2 °F 25.4 °F 24.8 °F 80% 30.35 in 10.0 mi SSW 4.6 mph - N/A   Clear
8:54 AM 33.8 °F 29.6 °F 24.8 °F 70% 30.36 in 10.0 mi SW 4.6 mph - N/A   Clear
9:33 AM 35.6 °F 31.7 °F 23.0 °F 60% 30.36 in 10.0 mi SW 4.6 mph - N/A   Clear
10:13 AM 37.4 °F 32.8 °F 21.2 °F 52% 30.37 in 10.0 mi WSW 5.8 mph - N/A   Clear
10:33 AM 37.4 °F 32.8 °F 21.2 °F 52% 30.37 in 10.0 mi West 5.8 mph - N/A   Clear
10:53 AM 39.2 °F 35.0 °F 19.4 °F 45% 30.37 in 10.0 mi West 5.8 mph - N/A   Clear
11:14 AM 41.0 °F 36.4 °F 17.6 °F 39% 30.36 in 10.0 mi SW 6.9 mph - N/A   Clear
11:33 AM 41.0 °F 37.1 °F 15.8 °F 36% 30.37 in 10.0 mi West 5.8 mph - N/A   Clear
11:53 AM 42.8 °F 38.6 °F 15.8 °F 34% 30.36 in 10.0 mi WSW 6.9 mph - N/A   Clear
12:14 PM 42.8 °F 38.0 °F 14.0 °F 31% 30.36 in 10.0 mi SW 8.1 mph - N/A   Scattered Clouds
12:33 PM 42.8 °F 38.6 °F 10.4 °F 27% 30.35 in 10.0 mi West 6.9 mph - N/A   Scattered Clouds
12:53 PM 42.8 °F 38.0 °F 10.4 °F 27% 30.34 in 10.0 mi WSW 8.1 mph - N/A   Unknown
1:13 PM 42.8 °F 38.0 °F 10.4 °F 27% 30.33 in 10.0 mi SW 8.1 mph - N/A   Unknown
1:33 PM 42.8 °F 39.3 °F 10.4 °F 27% 30.33 in 10.0 mi SW 5.8 mph - N/A   Clear
1:54 PM 42.8 °F 38.0 °F 10.4 °F 27% 30.32 in 10.0 mi WSW 8.1 mph - N/A   Clear
2:13 PM 44.6 °F 40.7 °F 12.2 °F 27% 30.31 in 10.0 mi SW 6.9 mph - N/A   Clear
2:33 PM 44.6 °F 42.2 °F 10.4 °F 25% 30.30 in 10.0 mi West 4.6 mph - N/A   Clear
2:53 PM 44.6 °F 43.1 °F 10.4 °F 25% 30.30 in 10.0 mi WNW 3.5 mph - N/A   Clear
3:13 PM 44.6 °F 40.7 °F 10.4 °F 25% 30.29 in 10.0 mi SSW 6.9 mph - N/A   Clear
3:33 PM 44.6 °F - 12.2 °F 27% 30.29 in 10.0 mi Calm Calm - N/A   Clear
3:54 PM 44.6 °F 43.1 °F 12.2 °F 27% 30.28 in 10.0 mi SW 3.5 mph - N/A   Clear
4:13 PM 42.8 °F - 12.2 °F 29% 30.28 in 10.0 mi Calm Calm - N/A   Clear
4:33 PM 42.8 °F 39.3 °F 14.0 °F 31% 30.29 in 10.0 mi SSW 5.8 mph - N/A   Unknown
4:53 PM 42.8 °F 40.1 °F 14.0 °F 31% 30.28 in 10.0 mi South 4.6 mph - N/A   Unknown
5:14 PM 42.8 °F 40.1 °F 15.8 °F 34% 30.28 in 10.0 mi South 4.6 mph - N/A   Unknown
5:34 PM 42.8 °F 41.1 °F 17.6 °F 36% 30.28 in 10.0 mi South 3.5 mph - N/A   Clear
5:53 PM 41.0 °F 39.0 °F 19.4 °F 42% 30.28 in 10.0 mi SSW 3.5 mph - N/A   Clear
6:13 PM 39.2 °F 35.9 °F 19.4 °F 45% 30.29 in 10.0 mi South 4.6 mph - N/A   Clear
6:34 PM 39.2 °F 37.0 °F 17.6 °F 42% 30.29 in 10.0 mi South 3.5 mph - N/A   Clear
6:53 PM 39.2 °F - 17.6 °F 42% 30.29 in 10.0 mi Calm Calm - N/A   Clear
7:14 PM 35.6 °F - 19.4 °F 52% 30.30 in 10.0 mi Calm Calm - N/A   Clear
7:34 PM 37.4 °F 34.9 °F 19.4 °F 48% 30.30 in 10.0 mi South 3.5 mph - N/A   Clear
7:53 PM 37.4 °F 34.9 °F 19.4 °F 48% 30.30 in 10.0 mi South 3.5 mph - N/A   Clear
8:14 PM 37.4 °F 34.9 °F 19.4 °F 48% 30.30 in 10.0 mi South 3.5 mph - N/A   Clear
8:33 PM 35.6 °F - 21.2 °F 56% 30.30 in 10.0 mi Calm Calm - N/A   Clear
8:53 PM 33.8 °F - 21.2 °F 60% 30.31 in 10.0 mi Calm Calm - N/A   Clear
9:13 PM 35.6 °F - 23.0 °F 60% 30.31 in 10.0 mi Calm Calm - N/A   Clear
9:34 PM 32.0 °F - 23.0 °F 69% 30.31 in 10.0 mi Calm Calm - N/A   Clear
9:54 PM 33.8 °F - 23.0 °F 65% 30.32 in 10.0 mi Calm Calm - N/A   Clear
10:14 PM 33.8 °F - 24.8 °F 70% 30.32 in 10.0 mi Calm Calm - N/A   Clear
10:33 PM 32.0 °F - 24.8 °F 75% 30.32 in 10.0 mi Calm Calm - N/A   Clear
10:53 PM 33.8 °F - 24.8 °F 70% 30.32 in 10.0 mi Calm Calm - N/A   Clear
11:13 PM 33.8 °F - 23.0 °F 65% 30.32 in 10.0 mi Calm Calm - N/A   Clear
11:33 PM 33.8 °F - 21.2 °F 60% 30.32 in 10.0 mi Calm Calm - N/A   Unknown
11:54 PM 30.2 °F - 21.2 °F 69% 30.32 in 10.0 mi Calm Calm - N/A   Unknown